DW4078 Weather Reports


Display with metric or nautical units.
time (UTC)temp
F
wind
direction
speed
MPH
gust
MPH
rain 1hr
in
rain 24hr
in
rain mn
in
humidity
%
barometer
mb
20260502230603 43 27 1.0 3.0 0.00 0.16 0.16 61 1017.1
20260502230203 43 114 1.0 3.0 0.00 0.16 0.16 62 1017.0
20260502230003 43 107 1.0 3.0 0.00 0.16 0.16 61 1017.0
20260502225924 43 109 1.0 3.0 0.00 0.16 0.16 61 1017.1
20260502225603 43 110 1.0 3.0 0.00 0.16 0.16 61 1017.1
20260502225203 43 96 1.0 2.0 0.00 0.16 0.16 61 1016.9
20260502224603 43 111 1.0 2.0 0.00 0.16 0.16 62 1016.9
20260502224224 43 93 1.0 6.0 0.00 0.16 0.16 63 1017.1
20260502224103 43 87 1.0 6.0 0.00 0.16 0.16 62 1017.3
20260502224003 44 86 1.0 6.0 0.00 0.16 0.16 62 1017.2
20260502223803 43 83 1.0 6.0 0.00 0.16 0.16 64 1017.0
20260502223603 43 80 1.0 6.0 0.00 0.16 0.16 63 1017.1
20260502223323 43 81 1.0 6.0 0.00 0.16 0.16 62 1017.2
20260502223103 43 101 1.0 4.0 0.00 0.16 0.16 63 1017.1
20260502222703 44 136 1.0 4.0 0.00 0.16 0.16 62 1017.0
20260502222603 43 186 2.0 6.0 0.00 0.16 0.16 63 1017.2
20260502222403 43 234 2.0 6.0 0.00 0.16 0.16 62 1017.1
20260502222305 43 232 2.0 6.0 0.00 0.16 0.16 62 1017.0
20260502221903 43 216 2.0 6.0 0.00 0.16 0.16 61 1016.9
20260502221803 42 216 2.0 6.0 0.00 0.16 0.16 62 1016.8
20260502221703 42 236 2.0 6.0 0.00 0.16 0.16 61 1017.1
20260502221603 43 104 2.0 6.0 0.00 0.16 0.16 62 1017.1
20260502221523 43 67 2.0 6.0 0.00 0.16 0.16 61 1017.0
20260502221102 42 53 2.0 4.0 0.00 0.16 0.16 64 1016.9
20260502221024 42 55 2.0 4.0 0.00 0.16 0.16 64 1017.2
20260502220602 42 40 2.0 4.0 0.00 0.16 0.16 63 1017.0
20260502220503 42 50 2.0 4.0 0.00 0.16 0.16 63 1017.1
20260502220403 42 60 1.0 4.0 0.00 0.16 0.16 64 1017.1
20260502215903 42 43 2.0 6.0 0.00 0.16 0.16 63 1017.2
20260502215623 42 39 2.0 8.0 0.00 0.16 0.16 64 1017.2
20260502215103 42 17 3.0 8.0 0.00 0.16 0.16 63 1017.1
20260502214603 42 19 2.0 6.0 0.00 0.16 0.16 63 1017.0
20260502214503 42 29 2.0 6.0 0.00 0.16 0.16 62 1017.0
20260502214403 42 27 2.0 7.0 0.00 0.16 0.16 62 1017.1
20260502214003 42 49 2.0 7.0 0.00 0.16 0.16 62 1017.0
20260502213603 42 27 3.0 8.0 0.00 0.16 0.16 62 1016.9
20260502213503 42 19 3.0 8.0 0.00 0.16 0.16 62 1017.0
20260502212903 42 332 3.0 9.0 0.00 0.16 0.16 61 1017.0
20260502212802 42 323 4.0 9.0 0.00 0.16 0.16 61 1017.1
20260502212603 42 330 3.0 9.0 0.00 0.16 0.16 62 1016.8
20260502212304 42 330 3.0 9.0 0.00 0.16 0.16 62 1016.8
20260502212102 43 334 4.0 10.0 0.00 0.16 0.16 61 1016.9
20260502212002 43 346 4.0 10.0 0.00 0.16 0.16 61 1016.8
20260502211903 43 349 4.0 10.0 0.00 0.16 0.16 60 1016.8
20260502211503 42 7 4.0 10.0 0.00 0.16 0.16 60 1016.7
20260502211403 42 5 4.0 10.0 0.00 0.16 0.16 59 1016.8
20260502211003 43 13 3.0 8.0 0.00 0.16 0.16 59 1016.9
20260502210703 43 15 3.0 7.0 0.00 0.16 0.16 59 1016.8
20260502210603 43 3 3.0 8.0 0.00 0.16 0.16 58 1016.8
20260502210403 43 9 4.0 8.0 0.00 0.16 0.16 59 1016.8
20260502205903 44 1 4.0 8.0 0.00 0.16 0.16 58 1016.9
20260502205803 43 353 4.0 8.0 0.00 0.16 0.16 60 1016.8
20260502205703 43 351 4.0 8.0 0.00 0.16 0.16 58 1016.8
20260502205603 44 360 4.0 8.0 0.00 0.16 0.16 58 1016.8
20260502205403 44 356 4.0 9.0 0.00 0.16 0.16 59 1016.8
20260502205305 44 349 4.0 9.0 0.00 0.16 0.16 57 1016.8
20260502205103 44 350 4.0 9.0 0.00 0.16 0.16 57 1016.8
20260502205003 44 348 4.0 9.0 0.00 0.16 0.16 58 1016.7
20260502204603 44 316 4.0 9.0 0.00 0.16 0.16 57 1016.8
20260502203903 44 305 5.0 9.0 0.00 0.16 0.16 55 1016.6
20260502203503 44 335 5.0 10.0 0.00 0.16 0.16 54 1016.8
20260502203324 44 351 4.0 10.0 0.00 0.16 0.16 53 1016.8
20260502203203 44 18 4.0 10.0 0.00 0.16 0.16 53 1016.8
20260502203102 44 19 4.0 10.0 0.00 0.16 0.16 53 1016.8
20260502202803 45 337 4.0 10.0 0.00 0.16 0.16 51 1016.9
20260502202703 45 335 4.0 10.0 0.00 0.16 0.16 51 1016.7
20260502202603 45 316 4.0 10.0 0.00 0.16 0.16 52 1016.8
20260502202103 45 292 4.0 11.0 0.00 0.16 0.16 50 1016.7
20260502201803 45 360 4.0 11.0 0.00 0.16 0.16 52 1016.7
20260502201724 45 353 4.0 11.0 0.00 0.16 0.16 50 1016.8
20260502201603 44 350 4.0 11.0 0.00 0.16 0.16 52 1016.7
20260502201503 44 333 4.0 11.0 0.00 0.16 0.16 52 1016.8
20260502201424 45 324 4.0 11.0 0.00 0.16 0.16 53 1016.7
20260502201123 45 351 4.0 8.0 0.00 0.17 0.16 51 1016.7
20260502201003 45 358 4.0 8.0 0.00 0.17 0.16 52 1016.9
20260502200903 45 349 4.0 8.0 0.00 0.17 0.16 51 1016.9
20260502200403 45 39 3.0 8.0 0.00 0.17 0.16 50 1016.8
20260502200303 45 40 3.0 10.0 0.00 0.17 0.16 51 1016.9
20260502195903 45 347 4.0 10.0 0.00 0.17 0.16 50 1016.8
20260502195703 45 315 3.0 10.0 0.00 0.17 0.16 54 1016.7
20260502195602 45 292 4.0 10.0 0.00 0.17 0.16 52 1016.6
20260502195424 44 298 4.0 10.0 0.00 0.17 0.16 52 1016.8
20260502195103 45 328 4.0 10.0 0.00 0.17 0.16 49 1016.8
20260502194903 44 346 4.0 9.0 0.00 0.17 0.16 52 1016.8
20260502194602 44 4 4.0 8.0 0.00 0.17 0.16 51 1016.9
20260502194203 44 18 4.0 8.0 0.00 0.17 0.16 49 1016.9
20260502193903 45 341 5.0 11.0 0.00 0.17 0.16 49 1017.0
20260502193803 45 322 5.0 11.0 0.00 0.17 0.16 50 1017.0
20260502193523 46 307 5.0 11.0 0.00 0.17 0.16 48 1016.9
20260502193424 46 306 5.0 11.0 0.00 0.17 0.16 51 1016.9
20260502193003 45 314 5.0 11.0 0.00 0.17 0.16 49 1017.0
20260502192403 46 296 4.0 10.0 0.00 0.17 0.16 53 1017.1
20260502192305 46 295 4.0 10.0 0.00 0.17 0.16 53 1016.9
20260502191703 46 273 5.0 13.0 0.00 0.17 0.16 50 1017.1
20260502191624 46 275 5.0 13.0 0.00 0.18 0.16 51 1017.1
20260502191502 45 279 5.0 13.0 0.00 0.18 0.16 48 1016.9
20260502191302 45 275 5.0 13.0 0.00 0.18 0.16 49 1017.0
20260502191003 45 284 5.0 13.0 0.00 0.18 0.16 50 1017.1
20260502190902 45 286 5.0 13.0 0.00 0.18 0.16 51 1017.1
20260502190824 45 287 5.0 13.0 0.00 0.18 0.16 49 1017.2
20260502190703 45 295 5.0 10.0 0.00 0.18 0.16 55 1017.1
20260502190602 46 289 5.0 10.0 0.00 0.18 0.16 50 1017.1
20260502190424 46 303 4.0 10.0 0.00 0.19 0.16 51 1017.2
20260502190202 46 305 4.0 10.0 0.00 0.19 0.16 52 1017.2
20260502190003 47 319 4.0 10.0 0.00 0.19 0.16 52 1017.2
20260502185902 47 331 4.0 11.0 0.00 0.19 0.16 51 1017.1
20260502185803 47 355 3.0 11.0 0.00 0.19 0.16 55 1017.2
20260502185602 47 352 4.0 11.0 0.00 0.19 0.16 51 1017.1
20260502185324 47 360 4.0 11.0 0.00 0.20 0.16 52 1017.1
20260502184503 46 20 4.0 9.0 0.00 0.20 0.16 54 1017.3
20260502184324 46 35 3.0 9.0 0.00 0.20 0.16 55 1017.0
20260502184203 47 16 3.0 9.0 0.00 0.20 0.16 53 1017.1
20260502184103 47 13 3.0 9.0 0.00 0.20 0.16 54 1017.3
20260502183902 47 21 3.0 9.0 0.00 0.20 0.16 54 1017.0
20260502183703 47 337 3.0 9.0 0.00 0.20 0.16 54 1017.2
20260502183603 46 323 3.0 9.0 0.00 0.20 0.16 52 1017.2
20260502183503 46 323 3.0 9.0 0.00 0.20 0.16 58 1017.3
20260502183403 46 319 3.0 9.0 0.00 0.20 0.16 53 1017.4
20260502182903 45 332 4.0 10.0 0.00 0.21 0.16 57 1017.5
20260502182802 45 320 4.0 10.0 0.00 0.21 0.16 55 1017.3
20260502182603 44 326 4.0 10.0 0.00 0.21 0.16 55 1017.2
20260502182402 44 321 4.0 10.0 0.00 0.21 0.16 55 1017.2
20260502182304 44 319 4.0 10.0 0.00 0.21 0.16 55 1017.3
20260502182103 44 320 4.0 10.0 0.00 0.21 0.16 57 1017.4
20260502181902 44 320 3.0 10.0 0.00 0.21 0.16 55 1017.5
20260502181824 44 349 3.0 9.0 0.00 0.21 0.16 55 1017.3
20260502181524 43 321 4.0 9.0 0.00 0.21 0.16 55 1017.6
20260502181424 44 316 4.0 9.0 0.00 0.21 0.16 55 1017.4
20260502181203 44 298 4.0 9.0 0.00 0.21 0.16 58 1017.4
20260502181124 44 296 4.0 9.0 0.00 0.21 0.16 58 1017.4
20260502181024 44 278 4.0 9.0 0.00 0.21 0.16 59 1017.5
20260502180924 44 273 4.0 9.0 0.00 0.21 0.16 57 1017.3
20260502180803 44 263 3.0 9.0 0.00 0.22 0.16 58 1017.3
20260502180703 45 268 3.0 9.0 0.00 0.22 0.16 58 1017.4
20260502180602 45 324 3.0 9.0 0.00 0.22 0.16 55 1017.4
20260502180502 45 29 3.0 8.0 0.00 0.22 0.16 56 1017.3
20260502170402 42 74 1.0 4.0 0.00 0.26 0.16 73 1018.0
20260502164203 41 30 2.0 6.0 0.00 0.26 0.16 75 1018.0
20260502164103 40 239 2.0 6.0 0.00 0.26 0.16 76 1017.9
20260502163924 40 237 2.0 6.0 0.00 0.26 0.16 74 1018.0
20260502163803 41 231 2.0 6.0 0.00 0.26 0.16 74 1018.0
20260502163603 40 158 1.0 3.0 0.00 0.26 0.16 76 1018.0
20260502163103 41 79 1.0 3.0 0.00 0.26 0.16 74 1017.9
20260502163003 41 68 1.0 3.0 0.00 0.26 0.16 74 1018.0
20260502162903 41 63 1.0 4.0 0.00 0.26 0.16 75 1017.8
20260502162703 40 61 1.0 4.0 0.00 0.26 0.16 78 1018.0
20260502162603 40 61 2.0 4.0 0.00 0.26 0.16 77 1017.8
20260502162524 40 61 2.0 4.0 0.00 0.26 0.16 77 1017.8
20260502162424 40 55 1.0 4.0 0.00 0.26 0.16 77 1017.9
20260502162203 40 43 1.0 4.0 0.00 0.27 0.16 77 1017.9
20260502162124 40 53 1.0 4.0 0.00 0.27 0.16 77 1017.9
20260502161803 41 86 1.0 4.0 0.00 0.27 0.16 77 1017.8
20260502161624 41 93 1.0 3.0 0.00 0.27 0.16 78 1017.9
20260502161403 40 90 1.0 3.0 0.00 0.27 0.16 77 1018.0
20260502161103 40 92 1.0 3.0 0.00 0.28 0.16 77 1018.0
20260502161003 40 94 1.0 3.0 0.00 0.28 0.16 76 1017.9
20260502160703 40 92 0.0 2.0 0.00 0.29 0.16 79 1018.0
20260502160624 40 94 0.0 2.0 0.00 0.29 0.16 80 1018.0
20260502152124 38 60 1.0 6.0 0.00 0.38 0.16 82 1017.8
20260502152003 38 62 2.0 6.0 0.00 0.38 0.16 83 1017.7
20260502151603 38 61 2.0 6.0 0.00 0.38 0.16 84 1017.9
20260502150924 38 64 1.0 6.0 0.00 0.39 0.16 85 1017.8
20260502150824 38 55 2.0 6.0 0.00 0.40 0.16 86 1017.5
20260502150603 38 56 2.0 6.0 0.00 0.41 0.16 86 1017.7
20260502130624 36 49 1.0 6.0 0.01 0.50 0.16 95 1016.9
20260502130503 36 45 1.0 6.0 0.01 0.50 0.16 95 1017.0
20260502123803 36 60 0.0 2.0 0.02 0.50 0.16 96 1017.1
20260502123603 36 0 0.0 0.0 0.02 0.50 0.16 96 1016.9
20260502123402 36 0 0.0 0.0 0.02 0.51 0.16 96 1017.0
20260502123203 36 0 0.0 0.0 0.03 0.51 0.16 96 1017.1
20260502123103 36 0 0.0 0.0 0.03 0.51 0.16 96 1016.9
20260502122903 36 0 0.0 0.0 0.03 0.51 0.16 96 1016.8
20260502122702 36 0 0.0 0.0 0.03 0.51 0.16 96 1017.0
20260502122624 35 0 0.0 0.0 0.03 0.51 0.16 96 1017.0
20260502122503 35 0 0.0 0.0 0.03 0.51 0.16 96 1016.9
20260502122103 35 109 0.0 1.0 0.04 0.51 0.16 96 1016.8
20260502121903 35 109 0.0 1.0 0.04 0.51 0.16 96 1016.9
20260502121703 35 118 0.0 2.0 0.04 0.51 0.16 96 1016.8
20260502121603 35 118 0.0 2.0 0.04 0.51 0.16 96 1016.9
20260502121403 35 118 0.0 2.0 0.05 0.51 0.16 96 1016.9
20260502121224 35 121 0.0 2.0 0.05 0.51 0.16 96 1016.8
20260502120824 35 123 0.0 2.0 0.04 0.50 0.15 95 1016.8
20260502120503 35 0 0.0 0.0 0.05 0.50 0.15 95 1016.7
20260502120424 35 0 0.0 0.0 0.05 0.50 0.15 95 1016.6
20260502120124 35 102 0.0 1.0 0.05 0.50 0.15 95 1016.7
20260502115903 34 102 0.0 1.0 0.05 0.50 0.15 95 1016.6
20260502115603 34 101 0.0 1.0 0.06 0.50 0.15 95 1016.8
20260502115403 34 101 0.0 1.0 0.06 0.50 0.15 95 1016.7
20260502114724 34 100 0.0 1.0 0.06 0.50 0.15 95 1016.6
20260502114524 34 99 0.0 1.0 0.05 0.49 0.15 95 1016.6
20260502114402 34 99 0.0 1.0 0.05 0.49 0.14 95 1016.7
20260502114103 34 0 0.0 0.0 0.05 0.49 0.14 95 1016.6
20260502113903 34 0 0.0 0.0 0.06 0.49 0.14 95 1016.6
20260502113803 34 0 0.0 0.0 0.06 0.49 0.14 95 1016.7
20260502113703 34 107 0.0 1.0 0.06 0.49 0.14 95 1016.7
20260502113503 34 106 0.0 1.0 0.06 0.49 0.14 95 1016.7
20260502113124 34 95 0.0 2.0 0.05 0.48 0.13 95 1016.7
20260502112703 34 62 1.0 4.0 0.05 0.48 0.13 95 1016.7
20260502112603 34 62 1.0 4.0 0.05 0.48 0.13 95 1016.5
20260502111903 35 60 1.0 4.0 0.05 0.47 0.12 95 1016.6
20260502111824 35 59 1.0 4.0 0.05 0.47 0.12 95 1016.7
20260502111724 35 70 1.0 3.0 0.05 0.47 0.12 95 1016.7
20260502111603 35 73 1.0 2.0 0.05 0.47 0.12 95 1016.8
20260502111403 35 72 0.0 2.0 0.04 0.46 0.11 95 1016.6
20260502111303 35 72 0.0 2.0 0.04 0.46 0.11 95 1016.8
20260502111203 35 73 1.0 2.0 0.04 0.46 0.11 95 1016.7
20260502111103 36 68 0.0 2.0 0.04 0.46 0.11 95 1016.8
20260502110903 36 83 0.0 2.0 0.04 0.46 0.11 95 1016.7
20260502110824 36 82 0.0 2.0 0.05 0.46 0.11 95 1016.6
20260502110703 36 79 0.0 2.0 0.04 0.45 0.10 95 1016.5
20260502110603 36 69 0.0 2.0 0.04 0.45 0.10 94 1016.5
20260502105803 36 86 0.0 1.0 0.03 0.44 0.09 94 1016.5
20260502105703 36 81 0.0 2.0 0.04 0.44 0.09 94 1016.5
20260502105603 36 78 1.0 2.0 0.04 0.44 0.09 94 1016.7
20260502105403 36 71 1.0 3.0 0.04 0.44 0.09 94 1016.5
20260502105203 36 72 1.0 3.0 0.04 0.44 0.09 94 1016.5
20260502105103 36 73 1.0 3.0 0.04 0.44 0.09 94 1016.6
20260502104803 36 75 1.0 3.0 0.04 0.44 0.09 94 1016.2
20260502104703 36 77 1.0 3.0 0.04 0.44 0.09 94 1016.5
20260502104603 36 78 1.0 3.0 0.04 0.44 0.09 94 1016.2
20260502104503 37 82 1.0 3.0 0.05 0.44 0.09 94 1016.4
20260502104303 37 88 0.0 2.0 0.05 0.44 0.09 94 1016.4
20260502104103 37 88 0.0 2.0 0.05 0.44 0.09 94 1016.2
20260502103303 36 86 0.0 2.0 0.04 0.43 0.08 94 1016.1
20260502102924 37 90 0.0 2.0 0.05 0.43 0.08 94 1016.1
20260502102803 37 93 0.0 2.0 0.05 0.43 0.08 94 1015.9
20260502102603 37 93 0.0 2.0 0.05 0.43 0.08 94 1016.1
20260502102403 37 94 0.0 2.0 0.04 0.42 0.07 94 1016.0
20260502102103 37 0 0.0 0.0 0.04 0.42 0.07 94 1016.2
20260502102003 37 0 0.0 0.0 0.04 0.42 0.07 94 1016.2
20260502101903 37 0 0.0 0.0 0.04 0.42 0.07 94 1016.0
20260502101224 37 110 0.0 1.0 0.04 0.42 0.07 94 1016.0
20260502101103 36 106 0.0 1.0 0.04 0.42 0.07 94 1016.1
20260502101003 36 106 0.0 1.0 0.04 0.42 0.07 94 1015.9
20260502100903 36 106 0.0 1.0 0.04 0.42 0.07 94 1016.0
20260502100703 36 105 0.0 1.0 0.03 0.41 0.06 94 1016.2
20260502100603 36 104 0.0 1.0 0.03 0.41 0.06 94 1016.1
20260502100303 37 99 0.0 1.0 0.03 0.41 0.06 94 1016.1
20260502091403 37 85 1.0 2.0 0.00 0.38 0.03 94 1015.7
20260502091103 37 95 0.0 2.0 0.00 0.38 0.03 94 1015.5
20260502091024 37 94 0.0 2.0 0.00 0.38 0.03 95 1015.9
20260502090603 38 0 0.0 0.0 0.00 0.38 0.03 95 1015.6
20260502090424 38 0 0.0 0.0 0.00 0.38 0.03 95 1015.5
20260502090203 38 0 0.0 0.0 0.00 0.38 0.03 95 1015.6
20260502071503 38 249 1.0 3.0 0.00 0.38 0.03 94 1015.7
20260502071303 38 271 1.0 3.0 0.00 0.38 0.03 94 1015.7
20260502071103 38 283 0.0 2.0 0.00 0.38 0.03 94 1015.9
20260502071003 38 291 0.0 2.0 0.00 0.38 0.03 94 1015.9
20260502070924 38 0 0.0 0.0 0.00 0.38 0.03 94 1015.7
20260502070603 39 0 0.0 0.0 0.00 0.38 0.03 94 1015.6
20260502070403 38 0 0.0 0.0 0.00 0.38 0.03 94 1015.6
20260502065903 38 0 0.0 0.0 0.00 0.38 0.03 94 1015.7
20260502065803 38 0 0.0 0.0 0.00 0.38 0.03 94 1015.9
20260502065724 38 0 0.0 0.0 0.00 0.38 0.03 94 1015.7
20260502065403 38 0 0.0 0.0 0.00 0.38 0.03 94 1015.6
20260502065306 38 0 0.0 0.0 0.00 0.38 0.03 94 1015.6
20260502064703 38 0 0.0 0.0 0.00 0.38 0.03 94 1015.5
20260502064603 38 122 0.0 1.0 0.00 0.38 0.03 94 1015.5
20260502064503 38 124 0.0 1.0 0.00 0.38 0.03 94 1015.7
20260502064403 38 116 0.0 1.0 0.00 0.38 0.03 94 1015.7
20260502064303 38 116 0.0 1.0 0.01 0.38 0.03 94 1015.5
20260502064024 38 115 0.0 1.0 0.01 0.38 0.03 94 1015.7
20260502063403 38 112 0.0 1.0 0.01 0.38 0.03 94 1015.6
20260502063303 38 112 0.0 1.0 0.01 0.38 0.03 94 1015.7
20260502063103 38 113 0.0 1.0 0.01 0.38 0.03 94 1015.7
20260502062903 39 113 0.0 1.0 0.01 0.38 0.03 94 1015.7
20260502062703 38 0 0.0 0.0 0.01 0.38 0.03 94 1015.9
20260502062403 38 0 0.0 0.0 0.01 0.38 0.03 94 1015.7
20260502062306 38 0 0.0 0.0 0.01 0.38 0.03 94 1016.0
20260502062103 38 0 0.0 0.0 0.01 0.38 0.03 94 1016.0
20260502062003 38 0 0.0 0.0 0.01 0.38 0.03 94 1015.7
20260502061824 38 0 0.0 0.0 0.01 0.38 0.03 94 1015.9
20260502061603 38 0 0.0 0.0 0.01 0.38 0.03 94 1016.0
20260502061403 38 0 0.0 0.0 0.01 0.38 0.03 94 1016.0
20260502061303 38 0 0.0 0.0 0.01 0.38 0.03 94 1016.1
20260502061203 38 0 0.0 0.0 0.01 0.38 0.03 94 1016.3
20260502060903 38 0 0.0 0.0 0.01 0.38 0.03 94 1016.1
20260502060603 38 0 0.0 0.0 0.01 0.38 0.03 94 1016.3
20260502060303 38 0 0.0 0.0 0.01 0.38 0.03 94 1016.4
20260502060203 38 0 0.0 0.0 0.01 0.38 0.03 94 1016.1
20260502060003 38 0 0.0 0.0 0.02 0.38 0.03 94 1016.3
20260502055903 38 0 0.0 0.0 0.02 0.38 0.03 94 1016.4
20260502055124 38 0 0.0 0.0 0.02 0.38 0.03 94 1016.6
20260502054903 38 0 0.0 0.0 0.02 0.38 0.03 94 1016.4
20260502054403 39 0 0.0 0.0 0.02 0.38 0.03 94 1016.3
20260502054203 39 0 0.0 0.0 0.01 0.37 0.02 94 1016.3
20260502054103 39 0 0.0 0.0 0.01 0.37 0.02 94 1016.5
20260502053903 39 0 0.0 0.0 0.01 0.37 0.02 94 1016.4
20260502053803 39 0 0.0 0.0 0.01 0.37 0.02 94 1016.2
20260502053603 39 86 0.0 1.0 0.01 0.37 0.02 94 1016.5
20260502053503 39 86 0.0 1.0 0.01 0.37 0.02 94 1016.4
20260502053403 39 86 0.0 1.0 0.01 0.37 0.02 94 1016.6
20260502053103 39 86 0.0 1.0 0.01 0.37 0.02 94 1016.5
20260502053003 39 86 0.0 1.0 0.01 0.37 0.02 94 1016.4
20260502052903 39 90 0.0 1.0 0.01 0.37 0.02 94 1016.6
20260502052703 39 88 0.0 1.0 0.01 0.37 0.02 94 1016.5
20260502052003 39 101 0.0 2.0 0.02 0.37 0.02 94 1016.6
20260502051803 39 96 0.0 2.0 0.02 0.37 0.02 94 1016.9
20260502051603 39 89 1.0 3.0 0.02 0.37 0.02 94 1016.6
20260502051403 39 86 1.0 3.0 0.02 0.37 0.02 94 1016.5
20260502051303 39 83 1.0 3.0 0.02 0.37 0.02 94 1016.6
20260502051103 39 77 1.0 3.0 0.02 0.37 0.02 94 1016.6
20260502050903 39 66 1.0 3.0 0.02 0.37 0.02 94 1016.5
20260502050824 39 63 1.0 3.0 0.02 0.37 0.02 94 1016.4
20260502050603 39 52 0.0 3.0 0.02 0.37 0.02 94 1016.5
20260502050524 39 44 0.0 3.0 0.02 0.37 0.02 94 1016.7
20260502050203 39 24 0.0 3.0 0.02 0.37 0.02 94 1016.6
20260502045903 39 83 0.0 1.0 0.01 0.36 0.01 94 1016.6
20260502045603 39 86 0.0 1.0 0.01 0.36 0.01 94 1016.7
20260502045424 39 88 0.0 1.0 0.01 0.36 0.01 94 1016.7
20260502045305 39 87 0.0 2.0 0.01 0.36 0.01 94 1016.6
20260502045203 39 88 0.0 2.0 0.01 0.36 0.01 94 1016.6
20260502045103 39 84 0.0 2.0 0.01 0.36 0.01 94 1016.8
20260502044803 39 81 0.0 2.0 0.01 0.36 0.01 94 1016.7
20260502044403 39 78 0.0 2.0 0.01 0.36 0.01 94 1016.8
20260502043903 39 95 0.0 1.0 0.01 0.36 0.01 94 1016.6
20260502043603 39 95 0.0 1.0 0.01 0.36 0.01 94 1016.5
20260502043403 40 78 0.0 2.0 0.01 0.36 0.01 94 1016.7
20260502043303 40 74 0.0 2.0 0.01 0.36 0.01 94 1016.8
20260502043103 40 81 0.0 2.0 0.01 0.36 0.01 94 1016.6
20260502042903 40 81 0.0 2.0 0.01 0.36 0.01 94 1016.6
20260502042703 40 81 0.0 2.0 0.01 0.36 0.01 94 1016.6
20260502042403 40 88 0.0 1.0 0.01 0.36 0.01 94 1016.7
20260502042103 40 0 0.0 0.0 0.00 0.35 0.00 94 1016.6
20260502041903 40 0 0.0 0.0 0.00 0.35 0.00 94 1016.6
20260502041703 40 0 0.0 0.0 0.00 0.35 0.00 94 1016.8
20260502041603 40 137 0.0 1.0 0.00 0.35 0.00 94 1016.7
20260502041103 40 136 0.0 1.0 0.00 0.35 0.00 94 1016.8
20260502040803 40 144 0.0 2.0 0.00 0.35 0.00 94 1016.8
20260502040603 40 146 0.0 2.0 0.00 0.35 0.00 94 1016.8
20260502040503 40 144 0.0 2.0 0.00 0.35 0.00 94 1016.8
20260502040403 40 146 0.0 2.0 0.00 0.35 0.00 94 1016.9
20260502035624 40 131 0.0 1.0 0.00 0.35 0.35 94 1016.6
20260502035503 40 131 0.0 1.0 0.00 0.35 0.35 95 1016.5
20260502035403 40 131 0.0 1.0 0.00 0.35 0.35 95 1016.5
20260502035103 40 125 0.0 1.0 0.00 0.35 0.35 95 1016.6
20260502034724 39 0 0.0 0.0 0.00 0.35 0.35 95 1016.6
20260502034503 39 0 0.0 0.0 0.00 0.35 0.35 95 1016.4
20260502034303 39 0 0.0 0.0 0.00 0.35 0.35 95 1016.3
20260502034203 39 0 0.0 0.0 0.00 0.35 0.35 95 1016.6
20260502034103 39 0 0.0 0.0 0.00 0.35 0.35 95 1016.4
20260502033903 39 0 0.0 0.0 0.00 0.35 0.35 95 1016.3
20260502033703 39 0 0.0 0.0 0.00 0.35 0.35 95 1016.3
20260502033403 39 87 0.0 1.0 0.00 0.35 0.35 95 1016.5
20260502033303 39 86 0.0 1.0 0.00 0.35 0.35 95 1016.4
20260502033103 39 86 0.0 1.0 0.00 0.35 0.35 95 1016.4
20260502032903 39 86 0.0 1.0 0.00 0.35 0.35 95 1016.3
20260502032424 39 84 0.0 1.0 0.00 0.35 0.35 95 1016.4
20260502031803 39 0 0.0 0.0 0.00 0.35 0.35 95 1016.2
20260502031624 39 0 0.0 0.0 0.00 0.35 0.35 95 1016.1
20260502031503 39 0 0.0 0.0 0.00 0.35 0.35 95 1016.1
20260502031403 39 0 0.0 0.0 0.00 0.35 0.35 94 1016.3
20260502031303 39 0 0.0 0.0 0.00 0.35 0.35 94 1016.2
20260502031203 39 0 0.0 0.0 0.00 0.35 0.35 94 1016.1
20260502031003 39 0 0.0 0.0 0.00 0.35 0.35 94 1016.3
20260502030624 39 0 0.0 0.0 0.00 0.35 0.35 94 1016.2
20260502030503 39 0 0.0 0.0 0.00 0.35 0.35 94 1016.0
20260502030403 39 0 0.0 0.0 0.00 0.35 0.35 94 1016.2
20260502025603 39 0 0.0 0.0 0.00 0.35 0.35 94 1016.1
20260502025424 39 0 0.0 0.0 0.00 0.35 0.35 94 1016.2
20260502025124 39 0 0.0 0.0 0.00 0.35 0.35 94 1016.1
20260502024603 39 0 0.0 0.0 0.00 0.35 0.35 94 1016.3
20260502024503 39 0 0.0 0.0 0.00 0.35 0.35 94 1016.2
20260502024403 39 0 0.0 0.0 0.00 0.35 0.35 94 1016.2
20260502024003 39 0 0.0 0.0 0.00 0.35 0.35 94 1016.2
20260502023103 39 0 0.0 0.0 0.00 0.35 0.35 94 1016.2
20260502022403 38 0 0.0 0.0 0.00 0.35 0.35 94 1016.2
20260502022306 38 0 0.0 0.0 0.00 0.35 0.35 94 1016.3
20260502021703 38 0 0.0 0.0 0.00 0.35 0.35 94 1016.2
20260502021224 38 0 0.0 0.0 0.00 0.35 0.35 94 1016.1
20260502021103 38 0 0.0 0.0 0.00 0.35 0.35 94 1016.1
20260502020903 38 0 0.0 0.0 0.00 0.35 0.35 94 1016.1
20260502020603 38 0 0.0 0.0 0.00 0.35 0.35 94 1015.9
20260502020203 38 0 0.0 0.0 0.00 0.35 0.35 94 1016.1
20260502020124 38 0 0.0 0.0 0.00 0.35 0.35 94 1016.3
20260502020003 38 0 0.0 0.0 0.00 0.35 0.35 94 1016.2
20260502015403 38 119 0.0 1.0 0.00 0.35 0.35 94 1016.2
20260502015324 38 119 0.0 1.0 0.00 0.35 0.35 94 1016.2
20260502015103 38 119 0.0 1.0 0.00 0.35 0.35 93 1016.1
20260502014903 38 119 0.0 1.0 0.00 0.35 0.35 93 1016.0
20260502014724 38 0 0.0 0.0 0.00 0.35 0.35 93 1016.0
20260502014603 38 0 0.0 0.0 0.00 0.35 0.35 93 1016.1
20260502014403 38 0 0.0 0.0 0.00 0.35 0.35 93 1016.1
20260502014324 38 0 0.0 0.0 0.00 0.35 0.35 93 1016.1
20260502014124 38 0 0.0 0.0 0.00 0.35 0.35 93 1016.1
20260502013903 38 0 0.0 0.0 0.00 0.35 0.35 93 1016.0
20260502013803 38 0 0.0 0.0 0.00 0.35 0.35 93 1016.2
20260502013603 38 0 0.0 0.0 0.00 0.35 0.35 92 1016.0
20260502013424 38 0 0.0 0.0 0.00 0.35 0.35 92 1016.1
20260502013303 38 0 0.0 0.0 0.00 0.35 0.35 92 1015.9
20260502013203 38 0 0.0 0.0 0.00 0.35 0.35 92 1015.9
20260502013103 38 0 0.0 0.0 0.00 0.35 0.35 92 1015.7
20260502013003 38 0 0.0 0.0 0.00 0.35 0.35 92 1015.6
20260502012603 38 0 0.0 0.0 0.00 0.35 0.35 92 1015.9
20260502012424 38 0 0.0 0.0 0.00 0.35 0.35 92 1015.7
20260502012003 38 108 0.0 1.0 0.00 0.35 0.35 92 1015.6
20260502011824 38 108 0.0 1.0 0.00 0.35 0.35 92 1015.9
20260502011603 38 108 0.0 1.0 0.00 0.35 0.35 91 1015.7
20260502011303 38 108 0.0 1.0 0.00 0.35 0.35 91 1015.7
20260502011203 38 108 0.0 1.0 0.00 0.35 0.35 91 1015.6
20260502011103 38 108 0.0 1.0 0.00 0.35 0.35 91 1015.4
20260502010503 38 0 0.0 0.0 0.00 0.35 0.35 90 1015.5
20260502010303 38 0 0.0 0.0 0.00 0.35 0.35 90 1015.5
20260502005924 38 0 0.0 0.0 0.00 0.35 0.35 89 1015.6
20260502005603 39 0 0.0 0.0 0.00 0.35 0.35 89 1015.5
20260502005324 39 0 0.0 0.0 0.00 0.35 0.35 88 1015.6
20260502005203 39 0 0.0 0.0 0.00 0.35 0.35 88 1015.5
20260502005003 39 0 0.0 0.0 0.00 0.35 0.35 88 1015.4
20260502004903 39 0 0.0 0.0 0.00 0.35 0.35 88 1015.3
20260502004403 39 0 0.0 0.0 0.00 0.35 0.35 86 1015.2
20260502004324 39 0 0.0 0.0 0.00 0.35 0.35 86 1015.3
20260502004103 39 0 0.0 0.0 0.00 0.35 0.35 85 1015.1
20260502003803 40 0 0.0 0.0 0.00 0.35 0.35 85 1015.0
20260502003603 40 0 0.0 0.0 0.00 0.35 0.35 85 1015.0
20260502003103 40 0 0.0 0.0 0.00 0.35 0.35 83 1014.9
20260502003003 40 0 0.0 0.0 0.00 0.35 0.35 83 1014.8
20260502002624 40 0 0.0 0.0 0.00 0.35 0.35 82 1014.9
20260502002103 41 77 0.0 1.0 0.00 0.35 0.35 81 1014.7
20260502002003 41 69 0.0 1.0 0.00 0.35 0.35 81 1014.7
20260502001903 41 69 0.0 1.0 0.00 0.35 0.35 81 1014.7
20260502001803 41 67 0.0 1.0 0.00 0.35 0.35 81 1014.9
20260502001603 41 81 0.0 1.0 0.00 0.35 0.35 80 1014.6
20260502001403 41 87 0.0 1.0 0.00 0.35 0.35 80 1014.7
20260502001324 41 81 0.0 1.0 0.00 0.35 0.35 80 1014.8
20260502001103 41 80 0.0 2.0 0.00 0.35 0.35 80 1014.6
20260502000903 42 68 1.0 3.0 0.00 0.35 0.35 79 1014.6
20260502000603 42 56 1.0 3.0 0.00 0.35 0.35 79 1014.8
20260502000524 42 63 1.0 3.0 0.00 0.35 0.35 79 1014.5
20260502000403 42 69 1.0 3.0 0.00 0.35 0.35 78 1014.8
20260501235703 42 86 1.0 2.0 0.00 0.35 0.35 77 1014.6
20260501235624 42 93 1.0 2.0 0.00 0.35 0.35 78 1014.6
20260501235503 43 96 0.0 2.0 0.00 0.35 0.35 77 1014.7
20260501235403 43 109 0.0 2.0 0.00 0.35 0.35 77 1014.7
20260501235103 43 103 0.0 2.0 0.00 0.35 0.35 77 1014.5
20260501235003 44 111 1.0 4.0 0.00 0.35 0.35 78 1014.4
20260501234703 43 151 1.0 4.0 0.00 0.35 0.35 78 1014.5
20260501234603 43 162 1.0 4.0 0.00 0.35 0.35 78 1014.5
20260501234424 43 199 1.0 4.0 0.00 0.35 0.35 77 1014.5
20260501234103 42 79 1.0 4.0 0.00 0.35 0.35 77 1014.4
20260501234003 42 58 1.0 3.0 0.00 0.35 0.35 77 1014.4
20260501233503 42 35 1.0 3.0 0.00 0.35 0.35 77 1014.6
20260501233203 42 13 2.0 6.0 0.00 0.35 0.35 77 1014.7
20260501232703 42 29 2.0 6.0 0.00 0.35 0.35 77 1014.5
20260501232603 42 20 2.0 6.0 0.00 0.35 0.35 76 1014.6
20260501232403 42 18 2.0 6.0 0.00 0.35 0.35 76 1014.4
20260501232305 42 36 2.0 6.0 0.00 0.35 0.35 76 1014.6
20260501232103 42 29 2.0 4.0 0.00 0.35 0.35 76 1014.6
20260501231924 43 41 2.0 4.0 0.00 0.35 0.35 76 1014.6
20260501231803 43 39 2.0 4.0 0.00 0.35 0.35 76 1014.5
20260501231703 43 15 2.0 6.0 0.00 0.35 0.35 75 1014.5
20260501231603 43 46 2.0 6.0 0.00 0.35 0.35 76 1014.5
20260501231503 43 46 2.0 6.0 0.00 0.35 0.35 76 1014.5
20260501231304 43 60 2.0 6.0 0.00 0.35 0.35 76 1014.4
20260501231103 43 75 2.0 6.0 0.00 0.35 0.35 75 1014.5
20260501231003 43 28 2.0 7.0 0.00 0.35 0.35 75 1014.3